Theta_e
288 287 287 286 286 286 285 286 286 286 286 287 288 288 288 287 286 286 286 285 284 284 283 282 282 282 282 282 282 282 282 281 281 281 281 281 281 282 282 281 281 281
286 286 286 286 285 285 285 286 286 286 287 287 288 287 287 286 285 285 284 283 283 282 282 281 281 281 281 281 281 281 282 281 280 280 280 280 280 281 281 281 281 281
286 286 286 286 285 285 285 285 286 286 287 286 286 286 286 285 284 284 283 283 282 281 281 281 281 281 281 280 280 281 281 281 280 279 280 279 279 279 280 280 280 279
286 286 286 286 286 286 286 286 286 286 286 285 285 285 284 284 283 282 281 281 281 281 281 281 281 281 280 280 280 280 280 280 279 279 279 279 278 279 279 279 279 278
287 287 287 288 287 287 287 287 287 287 286 285 284 284 283 282 281 280 280 280 280 281 281 280 280 280 280 279 279 280 280 280 279 278 278 278 278 278 278 278 278 278
288 288 288 288 288 287 288 288 288 288 287 285 284 282 282 281 280 280 280 280 280 281 280 280 280 279 279 279 279 279 280 280 279 278 278 278 278 278 278 278 278 277
287 287 287 287 286 286 287 288 288 287 287 285 282 281 280 280 280 280 280 281 280 280 280 279 279 279 279 278 278 279 279 279 278 278 278 278 277 277 277 277 277 277
286 286 285 285 285 285 286 286 286 285 284 283 281 280 279 280 280 280 280 280 280 280 279 279 278 278 278 278 278 278 278 278 278 278 278 278 277 277 277 277 277 276
285 284 284 284 284 284 284 284 283 283 282 281 280 280 280 280 280 280 280 280 279 279 279 278 278 278 278 278 278 278 278 278 278 278 277 277 277 276 276 276 276 276
283 283 283 283 283 282 282 282 281 280 280 280 280 280 280 280 280 280 280 279 279 279 278 278 278 278 277 277 277 277 277 277 277 277 277 277 276 275 275 276 275 275
282 282 283 283 282 282 282 281 280 280 280 280 280 280 280 280 279 279 279 279 278 278 278 278 277 277 277 277 277 277 277 277 277 276 276 276 275 275 275 275 275 275
282 282 282 282 282 282 281 280 279 280 280 280 280 280 280 279 279 279 278 278 278 278 278 277 277 277 277 277 277 277 277 276 276 276 276 275 275 275 275 275 275 274
281 282 282 282 281 281 280 279 279 279 280 280 280 280 280 279 279 278 278 278 278 278 277 277 277 277 277 277 277 277 276 276 276 276 275 275 275 275 275 274 274 274
281 281 281 281 281 280 279 279 279 279 280 279 279 279 279 279 279 278 278 278 277 277 277 277 277 277 277 277 277 276 276 276 275 275 275 275 275 274 274 274 274 274
281 281 280 280 280 279 279 279 279 279 279 279 279 279 279 278 278 278 278 277 277 277 277 277 277 277 277 277 276 276 276 275 275 275 275 275 274 274 274 274 274 274
280 280 280 279 279 279 279 279 279 279 279 279 279 278 278 278 278 278 277 277 277 277 276 276 277 277 277 276 276 276 276 276 275 275 275 274 274 274 274 274 274 274
280 280 279 279 279 279 279 279 279 279 278 278 278 278 278 278 278 277 277 277 277 277 277 277 277 276 276 276 275 276 276 275 275 275 274 274 274 274 274 274 274 274
280 279 279 279 279 279 279 278 278 278 278 278 278 278 277 277 277 277 277 277 277 277 277 277 277 276 275 275 275 275 275 275 275 274 274 274 274 274 274 274 274 274
280 279 279 278 278 278 278 278 278 278 278 278 277 278 277 277 277 277 277 277 277 276 276 276 276 276 275 275 275 275 275 275 275 274 274 274 274 274 274 274 274 273
279 279 279 278 278 278 278 278 278 278 278 278 277 277 277 277 277 277 277 277 276 276 276 276 276 275 274 275 275 275 276 275 274 274 274 274 274 274 274 274 273 273
279 279 278 278 278 278 278 278 278 278 278 277 277 277 277 277 277 277 277 276 276 276 276 276 276 275 274 275 275 275 276 276 274 274 274 274 274 274 273 273 273 273
279 279 278 278 278 278 277 277 277 277 277 277 277 277 277 277 277 277 277 276 276 276 276 275 275 275 275 275 274 275 276 276 274 274 274 274 273 273 273 273 273 273
279 279 278 278 278 278 277 277 277 277 277 277 277 277 277 277 277 277 276 276 276 276 275 275 276 275 275 275 275 276 276 275 274 274 274 273 273 273 273 273 273 273
279 279 279 278 278 278 277 277 277 277 277 277 277 277 277 277 277 276 276 276 276 276 276 275 276 275 275 276 277 277 276 275 274 274 274 273 273 272 272 273 272 272
279 279 279 278 278 278 278 277 277 277 277 276 276 276 276 276 276 276 276 276 276 276 276 275 276 276 275 276 277 277 276 275 274 274 273 272 272 272 272 272 272 272
279 279 279 278 278 278 278 278 277 277 276 276 276 276 276 276 276 275 275 276 276 276 275 275 276 275 275 276 277 276 276 275 274 273 273 272 272 272 272 272 272 272
Wind_Speed
31 31 31 32 31 30 30 29 29 28 27 25 24 23 21 20 19 17 16 15 15 15 15 15 15 14 14 13 13 13 13 14 14 13 12 13 13 13 13 12 11 12
30 30 30 31 30 30 29 28 28 27 25 24 23 22 21 20 19 18 17 17 17 16 16 15 15 14 13 13 13 13 13 13 13 12 11 12 12 12 11 11 10 10
30 30 30 30 30 30 29 28 26 25 24 23 22 21 21 20 19 18 18 18 18 18 16 15 14 14 13 13 13 13 12 12 12 12 11 11 11 11 11 10 9 9
30 30 30 30 30 29 28 27 26 24 23 22 21 21 21 20 20 20 20 20 19 18 16 15 14 14 14 14 14 13 13 12 12 12 12 12 11 10 10 9 9 9
32 31 31 30 30 29 28 27 26 24 22 22 22 22 22 22 22 22 22 20 18 17 16 15 14 14 15 15 15 14 14 13 13 12 12 12 11 10 9 9 9 9
32 32 31 31 30 30 29 27 26 25 23 23 23 23 24 24 24 23 22 20 18 17 16 15 15 15 15 15 15 15 14 13 13 11 11 12 11 10 10 9 9 9
33 32 31 30 30 29 28 27 26 26 25 25 25 25 25 24 24 22 21 19 18 17 16 16 16 16 16 16 16 15 14 13 12 11 11 11 11 10 10 9 8 9
33 32 31 30 30 29 27 27 28 28 27 27 27 26 25 24 23 22 21 19 19 18 17 17 16 16 16 16 15 15 14 13 13 12 12 11 10 10 10 9 8 9
31 30 29 29 29 28 28 28 28 28 28 28 28 27 25 24 22 21 21 20 19 19 19 18 17 16 16 16 15 15 15 15 14 13 12 11 10 10 10 9 9 9
29 29 28 28 28 28 28 28 29 28 28 28 28 27 25 24 22 21 21 21 21 20 19 19 18 17 17 16 16 15 16 16 15 13 12 11 10 10 10 10 9 9
30 30 29 29 29 29 29 29 29 30 29 28 27 27 26 25 23 22 22 22 22 21 20 20 19 18 18 17 17 16 16 15 14 13 12 11 10 11 11 10 10 9
31 31 32 31 31 31 31 31 31 31 30 28 28 27 26 25 24 24 23 23 22 21 21 20 19 19 18 18 17 16 16 15 14 13 12 11 11 11 11 10 10 9
32 32 32 33 33 33 33 33 32 31 30 29 27 27 27 26 26 25 24 23 23 22 21 20 20 19 18 18 18 17 16 15 14 13 12 11 11 11 11 10 10 9
32 32 33 33 34 34 34 33 32 31 30 29 28 27 27 27 27 26 25 24 23 22 21 20 20 20 19 19 18 17 16 15 14 13 12 12 12 12 12 11 9 8
33 33 34 34 34 35 35 34 33 31 30 29 29 28 28 27 27 26 26 25 24 23 22 21 21 20 20 19 18 18 17 15 14 14 13 14 14 14 13 11 9 7
35 35 35 35 35 35 35 34 33 32 31 30 30 29 28 28 27 27 27 27 26 25 23 23 22 20 20 19 18 17 16 15 15 15 15 16 16 15 13 11 9 7
37 36 36 36 36 35 35 35 34 33 32 31 30 30 29 29 29 28 28 28 27 26 25 24 23 21 20 19 18 17 16 16 16 17 17 17 17 16 14 11 9 7
39 38 37 36 37 36 36 35 34 34 33 33 32 32 31 31 30 30 30 29 29 28 27 26 24 22 21 19 18 17 17 17 17 18 18 18 17 16 14 12 10 8
40 39 37 37 37 37 36 36 35 35 35 35 34 34 33 33 32 32 31 31 31 30 28 27 25 23 21 20 19 17 17 17 17 18 18 18 17 16 15 14 12 10
41 40 38 37 37 37 37 38 37 37 37 37 36 36 36 35 35 34 33 33 32 31 29 28 26 24 22 21 19 17 16 17 17 17 18 18 18 17 16 15 13 12
42 40 38 37 38 38 38 39 39 39 39 38 38 38 38 37 37 36 36 35 34 32 31 29 27 25 23 22 20 18 17 16 17 18 18 18 18 18 17 16 15 14
42 41 39 39 39 39 39 40 40 40 40 39 39 38 38 38 38 38 38 37 35 34 33 31 28 26 25 23 21 19 18 18 18 18 18 19 19 18 18 17 16 15
41 42 40 39 39 40 40 41 41 41 41 40 40 40 41 41 40 40 39 37 36 35 35 33 30 28 27 25 22 21 20 21 20 18 18 19 18 19 19 18 17 16
41 42 40 40 40 42 43 42 42 42 41 41 42 43 43 42 41 40 38 38 37 37 36 34 32 30 28 25 23 22 22 23 21 18 19 19 19 19 19 19 18 16
41 40 40 41 42 43 43 43 42 40 39 38 39 40 41 41 39 39 39 38 37 37 37 35 33 31 29 26 24 24 23 24 23 20 20 20 21 21 21 19 19 17
40 41 42 42 42 42 42 41 39 37 35 36 37 37 38 38 38 38 39 39 38 37 37 36 34 33 31 29 27 26 25 25 25 23 22 22 23 23 22 21 20 20
Wind_Direction
170 168 168 168 167 167 165 164 163 163 163 164 164 163 162 161 161 161 160 157 157 156 154 152 150 149 147 144 145 145 144 144 139 138 139 136 134 132 126 119 114 108
172 171 171 170 168 168 168 167 167 167 167 167 167 164 163 163 162 162 161 160 161 159 156 154 152 151 151 151 154 153 151 148 143 143 143 139 137 136 131 124 115 110
174 174 173 172 171 170 169 168 168 169 168 168 168 166 164 164 163 164 165 165 164 161 159 158 155 156 158 159 162 159 156 153 148 150 148 140 139 136 131 128 122 115
176 176 176 175 175 174 172 170 169 170 170 169 169 168 167 166 165 165 164 165 166 163 162 162 159 161 163 166 169 165 161 157 152 155 152 140 138 137 133 131 127 119
179 180 180 180 180 178 176 174 171 171 172 173 173 173 171 169 167 166 164 166 168 166 165 164 164 167 169 171 173 170 165 159 155 158 155 142 138 139 137 136 130 120
183 184 185 185 184 182 179 177 174 174 176 179 179 177 175 171 168 168 168 169 170 169 169 170 170 171 172 173 174 172 169 163 159 162 157 146 142 142 142 142 132 120
185 185 185 185 184 183 182 179 178 177 178 180 180 178 175 172 172 172 173 172 172 173 174 175 176 176 175 176 176 174 172 169 166 166 160 151 147 144 143 143 133 121
185 184 184 183 182 183 183 181 181 179 178 178 178 178 177 176 176 174 174 175 175 176 177 178 180 180 179 181 181 178 175 173 172 171 166 158 153 148 145 145 138 127
184 182 181 182 182 184 185 183 183 181 179 178 178 178 178 179 179 177 176 178 178 179 180 181 183 184 184 185 185 183 179 176 175 176 172 165 160 153 149 148 143 133
183 182 181 181 182 184 185 184 183 180 179 180 179 179 179 180 181 181 180 181 181 182 183 184 186 187 187 187 187 186 183 180 178 178 176 170 163 156 152 150 145 137
185 184 184 185 185 187 187 186 184 182 182 183 182 181 181 181 181 182 183 184 185 186 186 187 189 189 189 189 188 187 186 183 181 180 178 172 165 159 154 152 147 140
186 186 186 188 188 189 188 187 185 184 184 185 185 184 183 183 183 184 186 188 189 190 190 190 191 192 192 191 189 188 188 188 185 182 179 172 166 163 159 157 152 146
187 187 188 189 190 190 189 188 187 187 187 186 187 187 186 185 185 187 189 191 192 192 193 194 193 192 193 193 192 192 191 191 189 184 180 174 170 168 164 160 157 154
189 189 190 191 191 190 189 188 188 189 189 188 189 190 190 189 189 189 191 192 194 195 195 197 196 194 194 194 194 194 194 194 192 188 184 178 175 173 169 167 165 163
189 190 191 192 192 190 189 190 190 190 191 191 191 192 192 192 192 193 193 193 196 198 198 199 199 198 196 196 196 195 195 196 194 192 188 183 178 176 174 173 172 172
190 190 192 192 192 192 191 191 191 191 192 192 193 193 194 194 195 196 197 197 197 198 200 201 202 200 197 197 198 197 197 199 197 194 189 185 181 179 178 178 178 181
191 191 192 193 193 192 192 191 191 191 193 193 194 195 196 197 198 198 200 201 201 201 202 204 203 200 198 198 198 198 199 200 198 194 190 188 187 184 182 183 185 190
192 193 193 193 193 193 192 191 191 192 193 194 195 196 197 199 200 202 202 203 204 204 205 206 204 200 199 199 199 200 200 199 198 196 193 192 191 190 189 190 192 200
193 194 193 194 194 193 192 191 191 193 194 196 197 198 199 201 202 204 205 205 207 207 207 208 206 200 199 200 201 201 200 199 199 198 198 197 196 196 197 197 200 207
195 195 194 194 194 193 193 193 193 195 197 198 199 199 200 202 203 205 207 207 209 208 209 210 207 201 198 200 201 199 198 200 199 198 200 201 202 203 204 204 207 211
196 196 195 195 195 195 195 195 196 197 198 199 200 200 202 203 204 206 207 208 210 209 210 212 209 201 198 201 203 198 195 199 201 199 200 203 205 208 209 208 209 213
197 197 196 197 196 196 196 197 197 198 199 199 200 202 203 204 206 208 208 209 210 209 211 212 209 203 200 203 205 199 194 201 205 202 201 205 207 209 210 210 210 213
198 198 198 198 197 197 198 199 200 200 200 200 201 202 204 205 207 209 209 210 210 210 211 212 209 204 202 204 204 198 197 206 211 206 202 205 207 208 209 210 211 217
200 199 200 199 199 200 201 201 202 202 202 202 202 204 205 207 208 209 210 211 212 212 213 213 211 206 203 202 202 199 202 211 214 210 206 206 206 207 208 210 213 220
202 201 202 202 202 203 204 204 203 203 203 203 204 206 207 208 209 209 211 212 213 215 215 214 213 209 203 201 201 201 207 215 216 213 210 208 206 205 208 210 214 219
204 204 205 205 206 206 206 206 204 203 203 203 204 206 206 207 208 209 212 213 214 216 217 216 216 212 204 202 204 205 208 215 217 214 212 210 207 205 207 209 214 219